Wind_Gust
14 16 14 13 12 12 13 12 13 12 10 11 11 11 11 10 9 10 9 10 9 10 10 10 9 8 8 9 7 7 9 9 10 10 10 12 14 13 12 13 12 10 10 9 17 18 11 17 17 17 17 16 17 16 16 16 16 15 14 13 16 16 16
17 17 16 15 14 13 13 12 11 13 12 10 10 10 9 11 10 10 10 10 11 11 11 13 11 11 10 9 8 8 8 9 9 8 9 12 12 12 13 12 11 11 12 13 14 16 13 15 17 17 18 17 17 16 15 15 16 15 15 14 15 16 15
17 17 16 16 15 14 14 13 13 12 13 12 10 10 9 11 11 11 11 12 11 11 11 12 11 10 9 9 9 8 9 8 8 9 10 11 9 11 12 13 12 14 13 12 11 13 11 12 15 19 18 17 17 16 13 14 14 14 15 14 13 16 15
17 16 17 16 16 14 15 14 13 13 12 13 12 11 10 11 11 11 11 11 11 10 10 11 10 10 9 9 10 9 9 9 9 8 9 8 10 10 10 11 12 13 12 14 14 14 13 13 15 17 16 16 19 17 13 13 13 15 16 14 15 15 14
18 19 18 18 17 16 15 15 14 14 13 14 13 13 11 10 11 11 10 10 11 10 11 11 11 11 10 10 10 10 11 11 10 10 10 11 10 12 10 10 10 9 9 9 13 12 13 13 13 15 17 19 18 18 18 13 14 15 15 16 16 15 15
18 18 18 18 17 17 17 15 15 15 15 15 15 15 12 10 10 10 10 10 11 11 11 12 12 12 12 12 12 11 11 11 11 10 12 12 12 12 12 11 11 11 12 10 10 9 10 12 14 16 16 15 15 17 18 15 15 15 14 15 16 16 16
17 18 18 18 17 17 17 17 16 16 15 14 15 14 13 11 12 12 12 13 12 12 12 12 12 12 10 13 12 12 12 12 12 11 13 12 12 11 10 11 11 11 11 10 9 9 10 11 14 14 14 14 13 15 16 15 14 16 15 15 15 16 15
17 17 16 16 16 15 15 16 16 16 16 16 16 15 13 12 13 13 13 13 13 12 13 12 13 12 11 12 14 13 13 13 13 12 13 12 12 11 10 11 11 11 10 11 9 8 9 8 11 14 15 17 14 11 13 14 14 13 14 14 15 15 15
16 16 16 16 16 15 15 16 16 15 16 16 16 15 13 13 14 14 14 14 13 13 13 13 12 13 11 12 13 13 12 12 12 11 11 12 11 11 11 10 11 13 11 11 10 11 11 8 9 12 12 12 14 15 13 13 12 14 10 12 16 15 14
16 16 18 16 16 15 15 15 16 16 16 16 16 15 14 13 14 14 15 14 13 13 13 12 12 12 11 12 13 12 12 11 11 12 11 12 11 10 12 10 12 13 13 12 13 12 11 9 9 7 8 9 8 11 15 14 11 12 14 13 11 16 13
14 16 17 18 16 16 14 16 16 17 16 17 17 15 15 14 14 14 15 15 14 13 13 12 12 13 11 13 13 13 13 12 12 12 12 12 11 11 11 11 11 13 12 12 13 11 11 10 10 9 7 7 9 9 9 12 14 10 13 12 13 14 13
14 16 17 17 16 16 15 15 15 15 16 16 18 17 16 16 15 15 15 15 15 14 13 13 12 12 12 14 13 14 13 12 14 13 13 12 12 12 12 12 11 13 11 11 10 11 10 10 11 11 12 11 13 11 8 12 16 12 11 12 12 12 13
15 16 16 17 17 15 15 16 16 15 15 16 16 16 16 16 16 16 16 17 16 15 14 13 13 13 12 13 12 13 13 13 15 14 14 13 14 13 13 13 12 12 11 11 11 10 11 11 10 12 12 13 13 11 9 12 15 15 10 10 10 11 10
14 15 17 16 15 16 14 15 15 15 15 15 16 16 16 17 17 16 17 17 17 16 15 14 13 12 13 13 12 13 13 13 14 14 13 12 12 11 12 13 12 11 9 9 11 10 11 12 10 10 10 11 11 10 10 11 14 15 12 8 7 10 10
16 15 17 16 14 16 16 14 14 15 15 15 16 17 17 16 16 16 16 17 16 17 16 16 14 13 14 13 13 11 12 13 13 14 12 13 12 11 10 12 13 11 9 10 8 12 13 11 11 12 11 9 11 10 8 10 12 12 13 12 10 10 11
16 15 15 14 14 15 16 15 15 15 16 15 15 16 16 16 17 17 16 16 16 16 16 16 14 13 14 14 15 13 11 11 12 12 12 12 14 13 11 11 12 11 9 10 8 9 8 8 8 12 10 10 10 9 9 10 9 12 12 13 10 12 9
13 13 13 13 14 14 15 16 16 14 15 15 16 14 15 16 16 16 17 17 16 15 16 15 15 14 15 14 14 15 13 12 11 11 11 12 13 12 12 11 11 11 11 11 10 10 9 8 7 10 9 10 9 9 9 7 8 8 11 13 9 8 11
12 11 12 12 13 13 14 15 15 16 14 15 15 15 15 16 16 17 16 18 18 17 17 16 16 15 13 12 12 12 12 12 11 11 10 10 6 10 11 10 12 11 11 10 10 10 9 8 9 9 9 9 10 9 8 7 8 7 9 11 11 9 8
11 12 12 12 13 14 13 14 15 14 15 16 15 15 15 15 15 17 17 17 17 18 18 17 17 17 16 14 12 12 11 11 11 11 12 11 12 12 11 12 12 12 12 11 10 9 8 8 8 8 8 8 10 9 7 8 7 7 8 9 9 11 9
13 14 14 14 14 14 14 13 16 17 15 16 16 16 15 15 13 14 15 15 17 17 17 17 16 16 17 17 16 15 13 13 13 12 12 13 13 13 13 13 12 13 13 12 11 12 12 9 7 7 7 7 9 8 8 7 7 7 7 8 9 8 8
11 13 14 14 14 13 16 16 17 16 16 16 16 17 15 15 13 13 13 15 15 15 15 15 17 16 15 15 14 14 14 12 12 13 12 13 13 14 14 14 14 15 15 14 13 12 12 12 12 11 10 10 9 9 8 7 8 10 9 8 10 8 7
9 10 13 13 13 14 15 15 16 17 16 16 14 16 17 15 16 16 15 13 15 13 15 15 16 15 15 14 14 14 13 13 12 13 14 15 15 16 16 16 16 17 16 9 8 9 9 6 13 14 13 13 12 10 9 9 9 9 10 11 12 9 10
9 10 11 12 12 12 13 14 15 16 17 16 15 15 17 16 17 18 19 18 15 13 14 15 9 6 4 12 14 14 12 11 13 15 15 15 15 16 17 16 16 9 9 11 11 10 10 10 7 11 13 14 13 12 10 10 10 9 10 13 12 11 13
7 9 10 11 12 14 15 14 14 16 16 16 15 15 16 17 17 18 19 19 18 15 15 15 11 9 9 4 9 11 11 11 13 17 18 17 17 16 16 16 15 13 12 8 15 11 10 11 12 8 9 10 10 9 10 10 10 8 11 10 9 11 11
8 8 9 12 12 12 12 13 15 15 15 16 17 15 11 16 17 17 17 18 18 17 18 12 16 13 10 10 6 11 11 13 15 18 18 18 17 16 14 14 13 13 14 16 17 18 13 8 6 3 6 9 8 10 9 12 10 8 7 10 11 9 10
9 9 10 12 11 11 13 14 14 15 15 15 13 12 13 16 17 17 16 17 17 17 17 11 12 13 12 11 9 9 14 16 17 15 15 15 14 13 12 13 13 14 14 9 13 16 17 17 8 9 11 12 12 11 10 11 11 13 9 9 9 10 10
9 9 10 11 11 13 14 15 14 14 13 14 13 14 14 16 18 19 18 19 19 18 19 13 11 12 12 13 11 10 14 16 15 14 14 14 13 13 12 12 13 13 13 14 13 15 15 18 18 17 16 15 14 12 8 8 8 7 7 9 9 11 8
10 8 9 10 12 13 14 14 14 15 16 15 15 16 15 14 18 16 18 18 19 18 17 13 11 11 10 11 11 8 15 14 15 15 14 12 10 10 9 9 10 11 10 11 13 12 16 18 19 18 18 17 15 14 12 11 10 9 8 7 7 8 8
14 12 9 10 12 13 13 14 15 15 15 17 17 17 19 18 16 17 17 16 16 18 13 11 9 10 10 11 11 15 16 15 16 14 13 11 11 9 9 9 10 10 9 10 13 7 8 17 19 20 18 16 15 14 14 9 8 11 13 12 11 11 12
13 12 12 12 12 12 11 12 12 14 16 17 18 19 17 17 16 16 16 16 15 16 13 10 7 8 10 12 12 17 17 18 15 13 11 12 12 11 10 9 8 9 11 13 10 8 8 11 18 19 18 17 15 14 14 13 8 7 8 9 8 7 6
13 13 12 11 11 11 12 12 12 13 15 15 16 16 16 17 14 15 15 17 17 15 14 11 8 9 11 16 14 17 17 15 13 14 13 11 12 14 15 13 10 11 13 15 10 10 10 13 17 18 18 17 16 14 14 13 12 11 6 5 4 4 6
15 14 14 13 11 13 13 14 12 13 15 15 15 15 16 16 16 15 14 13 4 10 15 12 8 9 10 13 16 15 16 15 15 14 14 14 13 14 14 12 15 12 12 14 11 10 7 9 14 15 16 15 15 13 13 13 12 12 14 14 16 16 17
14 15 15 14 12 12 12 12 12 14 14 16 17 18 19 21 20 17 15 15 13 10 14 15 14 10 9 10 12 14 15 14 15 15 14 17 15 14 15 15 14 12 13 11 9 8 6 7 11 14 13 12 12 13 13 12 10 9 8 11 11 12 14
14 15 16 15 13 13 13 13 13 14 15 15 16 18 19 19 18 17 16 14 14 11 10 12 13 8 10 10 10 9 15 14 14 15 16 15 16 16 16 15 15 10 10 12 12 12 12 12 8 12 10 12 13 14 7 11 12 5 12 11 13 14 14
14 14 15 16 15 15 14 13 13 16 17 16 16 17 17 17 18 17 16 15 14 14 10 7 12 8 6 8 8 8 12 13 12 17 16 17 17 16 17 18 18 11 12 14 15 15 15 14 12 17 18 12 9 5 8 7 8 10 10 12 12 13 14
16 15 14 14 16 16 15 15 14 14 15 17 19 19 19 18 18 19 16 15 15 14 14 12 6 9 6 6 6 6 8 8 5 13 16 16 16 18 18 19 18 11 14 15 16 16 16 15 12 17 12 10 9 4 6 8 8 11 11 12 13 14 13
18 16 16 15 16 17 17 16 20 21 20 21 22 23 21 20 21 20 19 15 13 12 13 13 6 3 10 5 4 4 5 7 5 11 16 17 17 20 21 20 19 13 14 15 14 13 12 12 19 12 10 9 7 7 11 9 11 8 11 12 12 13 13
Wind_Speed
6 7 7 6 5 5 5 5 5 4 4 4 4 3 3 3 3 3 3 3 3 3 3 2 2 1 1 2 1 1 2 2 4 4 4 3 4 3 3 4 4 2 3 2 4 5 3 6 7 6 6 7 7 7 7 7 7 7 6 5 6 6 6
8 7 6 6 6 5 6 5 4 5 5 4 3 3 2 3 3 4 4 4 4 3 3 4 4 4 3 3 2 1 2 2 2 0 1 3 3 3 4 4 4 3 3 4 7 7 5 6 6 7 7 7 7 7 6 6 7 6 6 6 6 6 6
7 7 6 6 6 6 7 6 6 4 5 5 4 3 3 3 3 4 4 5 4 4 4 4 4 4 3 3 3 2 2 2 2 1 1 2 2 2 3 3 4 5 4 4 3 5 2 3 5 7 7 8 7 6 5 5 6 6 6 5 5 6 6
9 8 8 7 6 6 7 6 6 5 4 5 5 4 3 4 4 4 4 4 4 3 3 4 3 3 3 3 3 3 3 3 3 2 1 1 0 1 1 3 3 3 3 4 4 4 2 4 5 6 6 6 8 7 5 5 5 6 6 5 5 5 5
10 8 9 9 8 8 7 6 5 5 5 5 5 5 4 4 4 4 4 4 4 3 4 3 3 3 3 3 3 3 3 4 4 3 3 3 3 3 3 0 2 1 1 2 3 4 4 3 4 5 5 7 7 7 6 5 5 5 5 5 6 5 5
9 10 9 9 8 7 7 7 6 6 6 6 5 6 5 4 3 4 3 3 4 4 4 4 5 5 4 4 5 5 4 4 4 3 3 4 4 3 3 3 3 2 2 2 1 1 2 3 4 5 6 5 5 6 6 6 5 5 5 5 5 5 5
8 9 8 9 8 6 6 6 6 7 6 6 6 6 5 4 4 5 5 5 5 5 5 5 5 5 4 4 5 5 5 5 4 5 5 5 5 4 3 3 3 3 4 3 2 1 3 4 4 4 5 5 4 5 5 5 5 5 5 5 4 5 5
7 7 7 7 7 7 6 6 6 6 7 7 6 6 6 5 5 5 6 6 6 5 5 5 5 5 4 5 6 5 5 5 5 5 5 5 4 4 4 3 3 3 3 3 2 2 2 1 3 4 4 6 4 3 4 4 4 4 4 4 4 5 5
7 7 7 7 7 7 7 6 6 7 7 7 7 7 6 6 6 7 6 6 6 6 6 6 5 5 5 5 5 5 5 4 5 5 4 5 5 5 4 3 4 5 4 4 3 4 4 2 2 3 3 3 5 5 4 4 3 4 2 3 6 5 4
7 7 8 9 8 7 7 6 7 7 8 7 7 6 6 6 6 6 7 7 6 6 6 5 5 5 4 5 5 5 5 4 4 5 4 5 4 4 5 4 5 5 5 5 5 4 4 2 2 1 1 2 2 3 5 5 3 4 5 4 2 5 4
6 7 8 9 8 8 7 6 7 7 7 8 7 6 7 7 7 7 7 7 6 6 6 5 5 5 5 5 5 5 5 5 5 4 4 4 5 4 4 4 4 5 5 4 5 4 4 3 2 2 1 1 2 1 2 4 5 3 4 4 4 4 4
6 7 8 8 7 7 7 7 7 7 7 8 8 8 8 7 7 7 7 7 7 6 6 6 5 5 5 6 5 5 5 5 5 5 5 5 4 4 5 5 4 5 4 4 4 4 3 3 3 3 4 3 4 4 2 4 5 4 3 4 4 4 4
6 7 6 7 7 7 7 7 7 7 7 7 7 8 7 8 8 8 7 7 7 7 6 6 5 6 5 5 5 5 5 5 6 6 6 5 4 5 5 5 4 4 3 3 3 3 3 4 3 4 4 5 5 4 3 4 6 6 3 3 3 3 2
8 7 8 8 7 7 7 7 7 6 6 7 8 8 8 8 8 7 8 8 8 7 7 6 5 5 5 5 5 5 5 5 6 5 5 5 4 4 4 5 5 4 2 2 3 3 3 4 3 3 3 3 3 3 3 4 5 6 4 2 1 2 2
8 7 9 8 7 8 7 7 7 7 7 7 8 8 8 7 7 8 8 8 8 8 8 7 6 5 6 6 5 4 5 5 5 6 5 5 5 3 4 5 5 4 2 3 2 4 4 3 3 4 3 2 3 3 2 2 4 4 5 4 3 2 3
8 8 9 7 7 7 7 8 7 7 7 7 7 7 8 8 8 8 8 7 7 7 7 7 6 6 6 7 6 5 4 4 5 5 5 5 6 5 5 4 5 4 3 3 1 2 2 1 1 4 3 2 3 2 2 2 1 4 4 4 3 3 2
7 7 7 6 7 7 7 7 7 7 7 7 7 6 7 8 8 8 8 8 8 7 7 7 6 6 6 6 6 7 6 5 4 4 4 5 5 5 5 4 4 4 4 3 3 2 2 2 0 3 3 3 2 2 2 1 2 1 3 4 2 0 3
5 5 5 6 6 6 7 7 7 7 6 7 7 7 6 7 7 7 7 8 8 8 8 8 7 6 6 5 5 5 5 5 4 4 3 3 3 3 4 4 4 4 4 4 3 3 2 1 1 2 1 2 2 2 1 1 1 0 1 2 3 2 1
4 5 6 6 6 7 6 7 7 6 7 7 7 7 7 6 7 8 8 8 8 8 9 8 8 8 7 6 5 5 4 4 4 4 4 4 5 4 4 4 5 5 5 4 4 3 2 2 1 1 0 1 2 2 1 1 0 1 1 1 1 3 2
5 5 6 7 6 6 6 6 7 8 7 7 7 7 7 7 6 5 6 6 7 8 8 8 7 8 8 8 7 6 6 5 5 5 5 5 5 5 5 5 5 6 5 5 4 5 5 4 1 1 1 1 2 0 2 1 1 1 1 1 1 1 1
5 6 6 7 7 6 6 6 6 6 7 7 7 7 7 6 5 5 5 6 6 6 6 6 7 7 6 6 6 6 6 5 5 5 5 5 5 5 6 6 6 6 7 6 6 5 5 5 4 4 2 2 3 3 2 1 2 3 2 2 3 2 1
3 4 5 6 6 6 5 5 6 6 6 6 5 6 7 7 7 7 7 6 6 5 5 5 5 5 5 5 5 5 5 5 4 4 5 6 6 6 7 7 7 8 8 6 6 5 5 3 5 5 5 5 5 4 3 3 3 3 3 4 4 3 4
2 3 4 5 5 5 4 5 5 6 6 6 5 6 6 7 7 8 8 7 7 6 5 4 6 5 2 3 5 4 4 4 4 4 5 6 6 7 7 6 6 6 6 9 9 8 7 6 4 4 2 7 6 5 4 3 3 3 4 5 4 4 5
1 2 2 3 4 5 5 4 4 5 5 5 6 6 6 7 7 7 8 8 8 7 6 5 10 8 7 2 3 5 4 4 4 5 6 6 7 7 7 7 6 7 7 7 8 10 9 10 8 6 8 9 8 2 3 4 4 2 4 3 2 3 3
2 1 2 3 3 3 2 3 4 4 4 5 5 5 5 6 6 6 7 7 7 7 6 11 14 11 9 8 5 4 4 4 4 5 6 7 6 6 6 6 5 4 5 7 8 9 8 7 4 2 6 8 7 8 7 5 3 1 1 3 3 3 3
1 1 2 2 2 2 3 3 3 4 4 4 4 6 6 6 6 7 7 8 8 7 5 10 11 11 10 10 8 6 5 5 6 5 5 6 6 5 4 4 5 4 4 8 6 7 8 8 7 7 9 9 9 8 9 9 10 6 2 2 2 3 3
0 1 1 2 3 4 4 4 4 4 4 5 6 5 5 7 7 7 7 8 8 8 7 10 10 10 11 11 10 7 5 5 6 5 5 5 4 5 4 4 4 5 5 6 6 7 6 9 8 8 8 7 6 7 7 7 6 6 4 3 3 4 2
3 1 1 3 4 5 5 5 5 5 6 7 7 7 6 6 6 8 10 9 9 9 6 11 10 10 9 8 8 6 5 6 4 6 5 4 3 3 3 2 3 4 4 4 4 4 7 8 9 8 9 8 7 6 5 3 3 1 2 1 1 2 2
5 3 2 2 3 5 5 6 6 7 6 7 7 7 8 8 8 8 9 8 8 9 4 9 8 8 9 9 9 6 5 4 7 6 4 3 3 3 3 3 3 3 3 4 10 5 4 8 9 10 9 7 7 6 6 6 5 7 6 5 4 4 4
4 4 4 3 3 4 4 4 5 5 7 7 8 8 8 7 7 7 8 7 7 7 5 7 7 7 9 10 8 6 7 8 6 5 4 4 4 4 2 0 1 2 4 5 7 7 6 9 9 10 9 8 6 5 6 4 5 6 6 7 7 6 5
5 5 4 4 4 4 4 4 4 5 6 7 7 7 6 6 5 5 6 7 7 6 4 6 6 6 8 11 11 7 7 6 6 5 5 4 4 5 6 9 8 3 5 6 9 9 9 9 8 9 8 8 7 6 5 4 4 3 3 2 3 3 5
6 6 6 5 4 5 5 6 5 5 6 7 6 5 4 3 4 5 6 5 3 4 6 6 5 7 8 11 9 6 7 6 6 6 5 5 5 5 5 7 11 8 7 9 9 9 6 6 7 7 7 7 6 5 5 5 4 4 5 5 6 7 7
6 7 7 6 5 4 4 4 5 6 6 7 7 7 7 8 9 7 7 7 5 4 6 6 7 8 8 9 10 5 6 5 6 6 5 6 6 6 6 6 7 10 10 8 8 7 5 7 3 6 5 5 5 5 5 4 2 2 1 3 4 4 6
6 7 7 7 6 6 5 5 5 6 7 6 6 8 10 9 8 8 7 7 6 4 3 5 6 7 9 9 9 6 6 5 5 5 6 6 5 6 6 6 6 7 8 9 9 9 10 10 7 4 2 4 5 7 3 4 4 3 4 4 5 6 5
6 6 6 7 7 7 6 6 5 6 7 6 8 8 8 8 8 8 7 7 7 6 4 5 5 5 5 6 7 7 5 5 3 6 5 6 6 6 6 6 6 6 9 11 11 11 12 11 11 7 8 10 8 5 0 1 1 3 3 4 4 5 5
7 6 6 6 7 8 7 7 6 6 6 7 9 9 9 9 9 9 7 6 6 6 6 4 5 3 5 3 3 4 7 2 4 4 6 7 7 7 7 8 8 8 10 11 12 12 12 12 10 9 10 9 8 2 4 2 1 3 3 3 4 5 5
9 8 8 7 7 8 8 8 8 8 8 9 9 10 9 9 9 9 9 6 5 5 5 5 3 2 6 4 3 1 2 4 0 3 6 6 7 8 9 9 10 11 12 11 11 10 10 10 9 10 8 7 5 5 3 1 3 1 3 4 4 4 4
Wind_Direction
139 132 138 126 117 116 115 125 131 127 121 111 114 102 111 107 109 116 103 96 107 119 143 127 115 90 78 86 104 161 166 187 190 220 198 167 205 174 207 216 210 216 211 216 134 226 194 139 132 100 89 78 79 75 73 75 76 79 68 59 75 72 65
136 141 140 139 134 126 124 123 117 116 111 96 89 99 94 94 115 109 94 91 83 86 97 103 90 78 70 70 99 134 131 139 159 196 204 179 212 153 181 182 190 204 172 211 228 225 246 149 133 123 110 99 92 80 79 75 80 79 71 64 61 74 76
141 139 141 138 137 141 130 133 133 134 127 124 109 84 87 92 92 109 106 96 90 76 67 72 87 83 70 64 54 53 70 88 74 108 216 162 216 132 211 151 185 178 209 177 211 232 166 138 148 145 135 135 113 96 100 104 95 91 91 78 65 60 59
144 145 142 147 145 150 146 144 141 133 134 123 124 109 86 88 88 84 87 87 87 68 62 61 54 63 68 65 72 73 77 80 88 70 86 121 62 158 219 154 232 196 203 196 173 206 187 173 148 154 155 121 117 116 95 88 94 96 95 90 77 63 63
152 152 152 152 157 153 149 144 136 137 134 132 131 119 102 88 85 79 78 84 76 70 66 55 52 76 75 77 75 71 77 82 96 120 123 145 163 157 197 174 253 280 182 242 160 195 196 154 157 152 139 132 130 115 121 115 98 86 67 66 71 78 62
159 155 154 155 157 154 154 149 146 136 139 141 131 118 102 97 100 105 95 84 84 68 58 69 80 68 75 78 78 79 73 76 80 98 128 128 140 148 144 155 147 129 110 82 91 184 150 136 157 160 141 146 121 129 137 146 126 91 77 77 67 50 56
161 159 157 155 156 152 151 151 148 141 137 132 127 113 113 103 87 87 82 77 74 78 79 76 73 74 77 98 88 76 79 77 81 86 95 97 94 95 108 100 78 83 64 60 70 108 124 158 158 153 138 121 145 150 146 153 147 143 104 76 62 62 57
161 161 158 151 150 147 148 153 143 139 135 134 124 113 109 103 103 95 92 91 88 86 87 89 91 88 66 73 84 80 75 77 80 80 80 85 86 72 61 66 96 82 70 68 52 56 128 124 151 154 162 145 155 146 141 120 109 60 109 84 46 71 64
166 159 146 147 142 143 148 150 144 138 133 128 122 122 117 114 111 108 102 95 94 97 97 96 97 91 80 85 92 90 88 83 92 89 95 85 70 68 71 67 75 76 64 62 69 45 39 55 97 143 174 169 158 150 158 140 125 98 28 103 98 52 60
165 158 149 145 143 148 152 152 145 134 135 135 129 128 127 121 120 112 106 103 101 103 106 102 98 98 97 95 96 99 91 83 81 76 72 82 86 78 75 67 78 82 74 66 63 70 74 68 89 115 241 208 209 149 167 148 127 121 90 5 49 77 53
159 149 146 149 153 156 156 152 142 143 146 140 139 138 133 127 123 122 114 110 109 110 112 114 108 108 113 105 107 105 96 99 99 96 94 92 86 88 87 86 83 81 67 73 72 66 73 70 84 101 98 87 287 249 165 141 107 62 99 83 30 67 61
158 149 149 152 156 160 160 154 149 146 144 147 146 144 143 139 138 129 125 120 120 117 115 112 121 120 116 115 120 113 122 120 109 109 104 103 104 104 102 96 95 92 90 87 91 87 83 93 102 99 75 54 49 28 55 123 137 72 4 86 78 46 48
161 147 155 158 164 165 161 156 152 152 153 152 148 150 148 146 145 141 135 130 129 127 123 123 124 123 124 122 128 124 119 125 119 118 121 123 120 118 117 113 102 103 113 123 102 85 80 60 50 76 84 86 75 55 42 45 80 106 71 72 96 113 102
161 163 168 173 172 166 159 162 157 158 160 158 155 157 154 153 150 148 143 143 138 136 134 132 130 130 125 126 118 119 137 134 130 123 120 124 127 136 125 117 118 111 101 98 113 126 105 101 95 79 82 93 88 72 71 103 113 119 125 119 129 92 67
177 173 173 181 179 170 162 169 160 166 170 165 164 161 158 155 155 156 153 149 148 144 145 139 142 137 130 130 130 140 148 150 137 131 145 136 126 121 135 134 128 125 127 120 158 153 142 155 145 138 117 92 99 85 25 81 107 118 130 159 149 145 133
174 173 179 178 182 183 167 169 169 174 174 169 170 166 159 163 162 159 157 157 155 152 150 145 147 148 143 150 149 151 157 148 146 148 156 151 152 141 149 145 142 141 148 148 161 71 95 163 120 85 77 71 73 68 62 40 116 116 138 128 162 167 125
183 181 180 183 185 188 181 171 177 186 177 170 171 171 163 169 165 165 162 160 158 158 152 150 158 160 158 157 159 156 161 159 162 168 164 165 151 160 157 156 149 154 160 156 166 146 172 122 215 105 128 119 110 76 55 5 344 73 131 144 157 273 114
182 189 201 202 201 195 191 185 178 188 182 175 171 170 171 170 171 175 170 169 162 162 161 162 162 164 155 166 162 154 166 164 167 175 171 163 157 179 161 181 160 164 169 164 163 190 138 197 191 144 165 139 134 106 128 19 25 292 180 128 139 100 180
187 192 203 211 206 205 198 196 184 190 190 182 174 178 179 175 181 181 180 177 166 165 167 166 168 168 162 162 167 164 172 169 183 186 179 197 186 189 195 191 176 180 183 180 174 144 143 169 127 226 136 313 96 116 82 112 166 348 310 91 154 161 162
206 209 213 220 222 222 216 209 201 195 192 191 181 185 188 184 184 199 187 175 173 173 170 171 166 163 165 167 168 170 173 183 189 196 201 204 202 201 205 204 194 190 195 192 174 172 160 162 159 208 53 340 287 126 223 211 215 183 283 250 178 338 223
215 216 221 219 220 224 223 216 213 199 189 197 192 192 187 186 171 187 182 190 184 176 170 176 173 170 176 166 168 173 176 185 198 193 204 214 212 213 212 213 209 201 199 197 198 178 181 170 192 138 171 238 263 240 242 205 249 242 224 269 311 307 306
215 209 207 212 212 212 213 214 208 199 189 197 204 196 184 180 176 184 182 188 182 177 187 182 178 181 180 177 184 186 196 200 214 227 227 224 220 222 222 217 216 211 199 189 180 185 189 170 195 175 195 204 210 223 239 257 242 247 255 292 289 282 297
209 204 212 212 209 210 215 204 201 202 202 198 186 197 187 182 185 185 183 181 187 187 193 194 111 88 18 196 192 202 186 206 223 239 245 247 233 226 227 223 217 213 167 163 165 176 164 182 224 257 227 193 200 210 227 253 273 281 305 288 296 323 308
217 213 229 235 227 225 216 207 207 211 207 204 196 189 193 191 194 188 187 190 187 192 192 159 135 159 167 265 236 200 210 211 212 233 240 235 238 231 221 219 213 173 184 176 179 183 183 186 195 225 340 23 25 360 226 222 242 282 288 288 332 320 327
194 212 234 240 244 241 232 220 215 208 199 185 188 190 204 211 203 200 201 198 191 192 195 147 168 168 179 181 222 224 210 216 218 230 237 234 233 233 229 217 208 183 206 207 208 183 190 185 188 137 76 70 65 57 44 20 330 255 304 315 323 319 311
301 246 244 244 233 243 231 224 226 213 193 191 180 199 203 198 206 211 209 212 212 206 222 150 162 161 166 185 201 230 216 213 230 231 239 238 242 242 229 215 202 204 195 149 221 205 187 163 121 109 112 101 75 64 57 44 30 18 4 317 287 286 287
275 235 250 268 254 239 226 223 205 209 196 187 196 201 223 218 214 212 215 228 230 230 241 153 165 163 176 184 183 199 229 214 215 220 215 216 212 219 218 220 213 198 181 177 209 214 186 159 160 154 159 167 140 109 94 88 88 59 11 317 303 298 13
34 25 248 227 239 241 237 231 211 200 192 186 192 214 229 224 221 233 235 236 238 235 225 144 162 172 175 171 169 200 217 209 169 228 213 203 217 215 215 222 238 239 203 207 201 198 169 166 164 166 170 169 162 161 139 125 80 77 134 232 314 350 350
22 11 323 265 250 247 235 225 211 205 199 201 221 223 225 229 229 230 229 224 227 226 133 131 152 176 168 169 164 198 202 191 203 197 167 165 191 185 194 208 217 214 203 199 102 142 186 163 166 165 162 153 145 121 82 61 37 34 33 34 34 26 37
4 359 1 325 284 273 253 234 212 205 199 210 222 222 223 222 224 222 217 214 214 217 172 136 151 167 173 165 179 200 190 203 191 180 165 154 149 121 109 87 207 171 166 112 123 147 152 179 161 159 157 159 152 141 127 120 81 63 58 66 66 68 60
330 331 319 322 312 275 267 255 221 205 209 212 216 210 205 202 206 211 203 206 203 201 180 126 160 170 180 182 208 210 203 203 174 167 154 140 117 99 64 25 348 132 129 125 140 143 162 188 165 164 164 158 157 154 142 142 146 115 119 148 164 175 186
320 318 315 318 319 300 272 253 234 206 208 205 199 188 182 167 200 198 186 176 40 237 140 128 167 175 190 198 228 237 213 193 177 180 160 140 126 112 102 62 28 40 85 116 133 139 169 219 162 168 164 169 174 173 145 156 162 171 182 197 192 194 207
313 308 308 312 309 294 277 253 226 217 204 198 182 176 177 186 182 164 148 147 159 173 137 138 143 164 186 200 236 280 228 204 189 176 179 154 141 121 111 101 69 61 87 97 99 94 67 342 187 157 170 189 179 142 136 151 63 340 220 258 283 272 284
316 309 295 294 297 290 274 257 231 217 209 201 180 176 177 175 158 150 152 152 148 134 109 138 128 157 179 199 214 253 222 220 192 184 172 158 153 141 128 104 100 70 85 89 92 82 69 45 37 127 110 86 68 79 111 154 132 240 258 268 268 267 265
309 299 294 286 281 275 260 253 252 228 217 193 180 175 171 168 161 155 154 154 145 140 90 17 136 142 178 196 214 245 281 198 200 179 169 164 153 139 125 122 119 104 100 96 89 85 78 72 63 81 76 85 72 57 324 88 206 221 262 261 279 287 286
289 287 285 282 275 270 264 245 240 237 214 191 187 179 176 170 167 163 158 156 151 145 139 117 19 134 148 189 222 251 325 351 56 197 179 164 146 130 125 116 106 109 104 100 95 93 93 93 86 90 98 90 91 96 259 217 1 281 275 290 291 290 289
278 274 274 274 267 260 254 247 238 229 224 213 206 203 196 183 178 168 163 157 152 145 142 130 87 57 141 154 149 2 38 85 110 244 177 159 139 130 133 130 124 121 105 100 94 85 79 81 101 116 111 122 157 228 251 187 228 254 279 268 277 285 299